• In Uzbekistan
  • List of Countries
  • For 7 days
  • Water Temperature
  • Satellite Maps
  • Weather Map
  • Weather Widgets
  • user-avatar
    Login

    Hourly Weather Goiania

    Today, 21 July, Saturday

    Time Temperature Precipitation Wind Pressure Humidity
    00:00 +20°C° 0 mm 1 mps 701 mmHg 50%
    01:00 +20°C° 0 mm 1 mps 701 mmHg 52%
    02:00 +20°C° 0 mm 1 mps 701 mmHg 53%
    03:00 +19°C° 0 mm 1 mps 701 mmHg 55%
    04:00 +19°C° 0 mm 1 mps 701 mmHg 56%
    05:00 +19°C° 0 mm 1 mps 701 mmHg 58%
    06:00 +18°C° 0 mm 1 mps 701 mmHg 59%
    07:00 +21°C° 0 mm 1 mps 702 mmHg 54%
    08:00 +23°C° 0 mm 1 mps 702 mmHg 48%
    09:00 +25°C° 0 mm 2 mps 703 mmHg 43%
    10:00 +27°C° 0 mm 2 mps 703 mmHg 38%
    11:00 +29°C° 0 mm 2 mps 703 mmHg 34%
    12:00 +31°C° 0 mm 2 mps 703 mmHg 29%
    13:00 +31°C° 0 mm 2 mps 702 mmHg 27%
    14:00 +32°C° 0 mm 2 mps 702 mmHg 26%
    15:00 +32°C° 0 mm 2 mps 701 mmHg 24%
    16:00 +30°C° 0 mm 2 mps 700 mmHg 28%
    17:00 +28°C° 0 mm 2 mps 700 mmHg 31%
    18:00 +26°C° 0 mm 2 mps 699 mmHg 35%
    19:00 +25°C° 0 mm 2 mps 700 mmHg 37%
    20:00 +24°C° 0 mm 2 mps 700 mmHg 39%
    21:00 +23°C° 0 mm 2 mps 700 mmHg 41%
    22:00 +21°C° 0 mm 2 mps 700 mmHg 43%
    23:00 +21°C° 0 mm 2 mps 700 mmHg 45%

    Tomorrow, 22 July, Sunday

    Time Temperature Precipitation Wind Pressure Humidity
    00:00 +20°C° 0 mm 2 mps 701 mmHg 47%
    01:00 +20°C° 0 mm 2 mps 700 mmHg 50%
    02:00 +20°C° 0 mm 2 mps 700 mmHg 53%
    03:00 +19°C° 0 mm 2 mps 699 mmHg 56%
    04:00 +19°C° 0 mm 2 mps 700 mmHg 57%
    05:00 +19°C° 0 mm 3 mps 700 mmHg 58%
    06:00 +19°C° 0 mm 3 mps 700 mmHg 58%
    07:00 +20°C° 0 mm 3 mps 700 mmHg 53%
    08:00 +22°C° 0 mm 4 mps 701 mmHg 48%
    09:00 +25°C° 0 mm 5 mps 702 mmHg 42%
    10:00 +27°C° 0 mm 5 mps 702 mmHg 37%
    11:00 +29°C° 0 mm 4 mps 703 mmHg 33%
    12:00 +32°C° 0 mm 4 mps 703 mmHg 28%
    13:00 +32°C° 0 mm 4 mps 702 mmHg 26%
    14:00 +31°C° 0 mm 3 mps 701 mmHg 25%
    15:00 +33°C° 0 mm 3 mps 701 mmHg 24%
    16:00 +30°C° 0 mm 3 mps 700 mmHg 28%
    17:00 +28°C° 0 mm 2 mps 700 mmHg 32%
    18:00 +26°C° 0 mm 2 mps 700 mmHg 36%
    19:00 +25°C° 0 mm 2 mps 701 mmHg 38%
    20:00 +24°C° 0 mm 3 mps 701 mmHg 40%
    21:00 +22°C° 0 mm 3 mps 702 mmHg 42%
    22:00 +22°C° 0 mm 3 mps 702 mmHg 43%
    23:00 +22°C° 0 mm 3 mps 702 mmHg 45%

    Day after tomorrow, 23 July, Monday

    Time Temperature Precipitation Wind Pressure Humidity
    00:00 +22°C° 0 mm 3 mps 702 mmHg 46%
    01:00 +21°C° 0 mm 3 mps 702 mmHg 48%
    02:00 +21°C° 0 mm 3 mps 702 mmHg 49%
    03:00 +21°C° 0 mm 3 mps 701 mmHg 51%
    04:00 +20°C° 0 mm 3 mps 701 mmHg 51%
    05:00 +20°C° 0 mm 4 mps 702 mmHg 51%
    06:00 +20°C° 0 mm 4 mps 702 mmHg 51%
    07:00 +21°C° 0 mm 4 mps 702 mmHg 48%
    08:00 +21°C° 0 mm 5 mps 703 mmHg 46%
    09:00 +22°C° 0 mm 5 mps 704 mmHg 43%
    10:00 +25°C° 0 mm 5 mps 704 mmHg 39%
    11:00 +27°C° 0 mm 4 mps 704 mmHg 34%
    12:00 +29°C° 0 mm 4 mps 704 mmHg 30%
    13:00 +30°C° 0 mm 3 mps 703 mmHg 28%
    14:00 +31°C° 0 mm 3 mps 703 mmHg 26%
    15:00 +31°C° 0 mm 3 mps 702 mmHg 25%
    16:00 +29°C° 0 mm 2 mps 702 mmHg 28%
    17:00 +28°C° 0 mm 2 mps 702 mmHg 31%
    18:00 +26°C° 0 mm 2 mps 701 mmHg 34%
    19:00 +25°C° 0 mm 2 mps 702 mmHg 37%
    20:00 +23°C° 0 mm 2 mps 702 mmHg 39%
    21:00 +21°C° 0 mm 2 mps 703 mmHg 42%
    22:00 +21°C° 0 mm 2 mps 703 mmHg 44%
    23:00 +20°C° 0 mm 3 mps 703 mmHg 46%

    24 July, Tuesday

    Time Temperature Precipitation Wind Pressure Humidity
    00:00 +20°C° 0 mm 3 mps 703 mmHg 48%
    01:00 +19°C° 0 mm 3 mps 702 mmHg 50%
    02:00 +19°C° 0 mm 2 mps 702 mmHg 51%
    03:00 +18°C° 0 mm 2 mps 702 mmHg 52%
    04:00 +18°C° 0 mm 2 mps 702 mmHg 53%
    05:00 +18°C° 0 mm 3 mps 702 mmHg 53%
    06:00 +18°C° 0 mm 3 mps 702 mmHg 53%
    07:00 +19°C° 0 mm 4 mps 703 mmHg 51%
    08:00 +21°C° 0 mm 4 mps 703 mmHg 49%
    09:00 +22°C° 0 mm 5 mps 704 mmHg 46%
    10:00 +25°C° 0 mm 5 mps 704 mmHg 42%
    11:00 +27°C° 0 mm 5 mps 704 mmHg 37%
    12:00 +29°C° 0 mm 4 mps 704 mmHg 33%
    13:00 +29°C° 0 mm 4 mps 703 mmHg 31%
    14:00 +30°C° 0 mm 4 mps 703 mmHg 30%
    15:00 +30°C° 0 mm 3 mps 702 mmHg 28%
    16:00 +29°C° 0 mm 3 mps 702 mmHg 31%
    17:00 +27°C° 0 mm 2 mps 702 mmHg 35%
    18:00 +25°C° 0 mm 2 mps 701 mmHg 38%
    19:00 +24°C° 0 mm 2 mps 702 mmHg 40%
    20:00 +23°C° 0 mm 2 mps 702 mmHg 42%
    21:00 +21°C° 0 mm 2 mps 702 mmHg 44%
    22:00 +21°C° 0 mm 2 mps 702 mmHg 47%
    23:00 +20°C° 0 mm 3 mps 702 mmHg 49%

    25 July, Wednesday

    Time Temperature Precipitation Wind Pressure Humidity
    00:00 +20°C° 0 mm 3 mps 702 mmHg 52%
    01:00 +19°C° 0 mm 3 mps 702 mmHg 55%
    02:00 +19°C° 0 mm 3 mps 702 mmHg 57%
    03:00 +19°C° 0 mm 2 mps 701 mmHg 60%
    04:00 +19°C° 0 mm 3 mps 702 mmHg 60%
    05:00 +18°C° 0 mm 3 mps 702 mmHg 60%
    06:00 +18°C° 0 mm 4 mps 702 mmHg 61%
    07:00 +20°C° 0 mm 4 mps 703 mmHg 57%
    08:00 +21°C° 0 mm 5 mps 703 mmHg 54%
    09:00 +22°C° 0 mm 5 mps 704 mmHg 51%
    10:00 +25°C° 0 mm 5 mps 704 mmHg 45%
    11:00 +27°C° 0 mm 5 mps 704 mmHg 39%
    12:00 +29°C° 0 mm 4 mps 704 mmHg 33%
    13:00 +29°C° 0 mm 4 mps 703 mmHg 31%
    14:00 +30°C° 0 mm 3 mps 703 mmHg 29%
    15:00 +31°C° 0 mm 3 mps 702 mmHg 27%
    16:00 +29°C° 0 mm 2 mps 702 mmHg 31%
    17:00 +27°C° 0 mm 2 mps 702 mmHg 34%
    18:00 +26°C° 0 mm 2 mps 701 mmHg 38%
    19:00 +25°C° 0 mm 2 mps 702 mmHg 41%
    20:00 +23°C° 0 mm 2 mps 702 mmHg 44%
    21:00 +21°C° 0 mm 2 mps 702 mmHg 46%
    22:00 +21°C° 0 mm 3 mps 702 mmHg 48%
    23:00 +21°C° 0 mm 3 mps 702 mmHg 49%

    26 July, Thursday

    Time Temperature Precipitation Wind Pressure Humidity
    00:00 +20°C° 0 mm 3 mps 702 mmHg 50%
    01:00 +20°C° 0 mm 3 mps 702 mmHg 50%
    02:00 +20°C° 0 mm 3 mps 702 mmHg 50%
    03:00 +19°C° 0 mm 3 mps 701 mmHg 50%
    04:00 +19°C° 0 mm 3 mps 701 mmHg 51%
    05:00 +19°C° 0 mm 4 mps 702 mmHg 52%
    06:00 +19°C° 0 mm 4 mps 702 mmHg 53%
    07:00 +20°C° 0 mm 4 mps 702 mmHg 52%
    08:00 +21°C° 0 mm 4 mps 703 mmHg 52%
    09:00 +22°C° 0 mm 5 mps 704 mmHg 51%
    10:00 +25°C° 0 mm 4 mps 703 mmHg 44%
    11:00 +28°C° 0 mm 4 mps 703 mmHg 38%
    12:00 +30°C° 0 mm 3 mps 703 mmHg 31%
    13:00 +31°C° 0 mm 2 mps 703 mmHg 29%
    14:00 +32°C° 0 mm 2 mps 702 mmHg 27%
    15:00 +32°C° 0 mm 1 mps 701 mmHg 25%
    16:00 +30°C° 0 mm 1 mps 701 mmHg 28%
    17:00 +28°C° 0 mm 1 mps 701 mmHg 31%
    18:00 +27°C° 0 mm 1 mps 701 mmHg 35%
    19:00 +25°C° 0 mm 1 mps 701 mmHg 37%
    20:00 +24°C° 0 mm 2 mps 701 mmHg 39%
    21:00 +23°C° 0 mm 2 mps 701 mmHg 42%
    22:00 +23°C° 0 mm 2 mps 701 mmHg 44%
    23:00 +21°C° 0 mm 2 mps 701 mmHg 46%
    Show more